Location: *
(20.7000°N, 123.9000°E)
Time: 18:07:45
(UTC+00:00)

Daily predictions for brighter satellites

Satellite Brightness Start Highest point End
(mag) Time Altitude Azimuth Time Altitude Azimuth Time Altitude Azimuth
ARGOS 3.8 12:09:09 44° SW 12:10:16 52° W 12:15:31 10° NNW
Cosmos 2184 Rocket 4.3 12:09:04 10° NNW 12:15:12 64° W 12:16:17 55° SW
CZ-2C R/B 3.3 12:13:29 10° N 12:18:28 51° WNW 12:18:28 51° WNW
ATLAS 2AS CENTAUR R/B 4.3 12:16:55 10° N 12:20:10 21° NNE 12:20:10 21° NNE
ATLAS 2AS CENTAUR RB 4.0 12:29:57 10° W 12:40:12 31° SW 12:40:12 31° SW
ATLAS 5 CENTAUR R/B 3.5 12:56:50 10° W 13:03:58 88° S 13:46:51 10° E
CZ-3A R/B 4.3 12:58:39 10° W 13:07:56 31° WSW 13:07:56 31° WSW
ATLAS 3B R/B 4.2 18:27:33 29° E 18:27:33 29° E 18:31:36 10° NE
VEP-3 3.8 18:31:19 81° ENE 18:31:19 81° ENE 18:56:52 10° E
CENTAUR R/B 3.7 19:23:28 27° NNW 19:23:28 27° NNW 19:26:47 10° N
SL-16 R/B 4.4 19:20:06 10° NNE 19:24:30 23° ENE 19:28:53 10° ESE
ATLAS 5 CENTAUR R/B 3.1 19:23:17 62° SSW 19:24:41 90° ESE 19:28:42 10° NNE
Skynet4D Del rocket 4.4 19:34:49 48° NW 19:36:44 67° NNE 19:44:24 10° E
IDEFIX/ARIANE 42P 4.4 19:37:09 10° NNW 19:38:41 18° NNW 19:38:41 18° NNW
Palapa 6 Rocket 3.4 19:43:43 52° ENE 19:43:43 52° ENE 19:47:05 10° E
ASTRO E2 3.9 19:44:58 36° NNE 19:44:58 36° NNE 19:48:38 10° E
Cosmos 2237 Rocket 3.7 19:44:00 10° NNW 19:53:15 21° S 19:55:04 10° S
Cosmos 2263 Rocket 2.5 19:48:49 26° S 19:52:02 66° ESE 19:57:39 10° NNE
MSX 4.4 19:51:32 10° N 19:56:21 38° WNW 19:56:21 38° WNW
GPS 2-14 Rocket1 3.7 19:57:11 37° SSE 19:57:11 37° SSE 20:00:47 10° E
Meteor 2-4 Rocket 4.4 19:57:50 37° WNW 19:57:50 37° WNW 20:02:33 10° NNW
Cosmos 468 4.4 19:53:14 10° NNW 19:58:33 69° WSW 20:03:48 10° S
Shenzhou-11 Module 3.7 20:05:44 25° NE 20:05:44 25° NE 20:06:59 10° NE
ADEOS 3.7 20:00:48 10° N 20:05:49 50° WNW 20:06:55 42° WSW
Cosmos 1092 Rocket 3.9 20:05:20 10° S 20:11:38 70° W 20:17:57 10° N
Cosmos 1437 Rocket 3.9 20:09:50 10° SSE 20:13:44 47° E 20:17:40 10° NNE
Meteor 1-4 Rocket 4.4 20:15:51 19° NW 20:15:51 19° NW 20:17:19 10° NNW
ATLAS 3B R/B 3.5 20:14:51 27° W 20:16:13 29° WNW 20:21:51 10° N
Cosmos 1674 Rocket 3.9 20:16:35 39° WSW 20:17:17 43° W 20:21:29 10° NNW
H-2A R/B 2.8 20:14:51 10° NNE 20:18:44 60° E 20:22:32 10° S
Intelsat 5-3 Rocket 3.1 20:18:50 20° SSE 20:18:59 20° SSE 20:21:11 10° ESE
Cosmos 2227 4.4 20:18:50 28° SW 20:21:28 47° WNW 20:26:51 10° N
EPKM 1.9 20:24:39 37° WNW 20:25:30 55° NNW 20:27:38 10° ENE
Cosmos 2026 Rocket 3.8 20:19:36 10° S 20:25:44 76° W 20:31:50 10° N
SWIFT 2.2 20:24:58 32° W 20:26:52 89° SSE 20:31:07 10° E
Cosmos 1689 Rocket 2.3 20:28:00 10° S 20:30:54 44° W 20:33:46 10° NNW
Lacrosse 5 4.1 20:27:53 10° S 20:31:47 23° ESE 20:35:42 10° ENE
Okean 2 4.1 20:32:26 10° S 20:36:29 57° E 20:40:31 10° NNE
Cosmos 1428 Rocket 4.4 20:31:00 10° SSW 20:37:02 67° W 20:43:08 10° N
CZ-2C R/B 3.4 20:33:57 10° NNW 20:37:27 22° WNW 20:38:38 20° W
SJ-12 4.3 20:33:31 10° NNE 20:37:33 64° E 20:41:33 10° S
PSLV R/B 4.0 20:35:13 10° SSE 20:39:25 88° E 20:43:38 10° NNW
Meteor 1-31 Rocket 3.3 20:37:18 10° N 20:40:56 37° WNW 20:44:32 10° SW
USA 234 4.2 20:35:58 10° ESE 20:42:14 51° NE 20:48:30 10° NNW
SeaSat 1 2.9 20:37:31 10° SSE 20:42:23 65° ENE 20:47:16 10° NNW
GPS 2-04 Rocket1 3.6 20:41:19 21° WSW 20:42:50 27° SW 20:46:03 10° SSE
ALOS 2.2 20:41:41 10° N 20:46:21 81° WNW 20:51:00 10° SSW
PSLV R/B 4.1 20:43:45 10° NNE 20:47:49 75° ESE 20:51:47 10° S
Cosmos 1655 Rocket 4.4 20:43:36 10° S 20:49:56 70° E 20:56:15 10° N
STARLINK-1179 4.3 20:47:26 10° SSW 20:50:18 37° SE 20:53:12 10° NE
STARLINK-1176 4.2 20:47:51 10° SSW 20:50:45 37° SE 20:53:39 10° NE
Cosmos 494 Rocket 4.5 20:47:59 10° NW 20:52:46 36° W 20:57:33 10° SSW
STARLINK-1173 4.3 20:50:28 10° SSW 20:53:21 37° SE 20:56:15 10° NE
CRYOSAT 2 4.3 20:48:56 10° N 20:53:46 80° W 20:58:37 10° S
STARLINK-1136 4.2 20:50:53 10° SSW 20:53:47 37° SE 20:56:41 10° NE
Okean O Rocket 3.6 20:52:34 10° NE 20:56:32 33° E 21:00:30 10° SSE
STARLINK-1183 4.2 20:57:25 10° SSW 21:00:19 38° SE 21:03:13 10° NE
Cosmos 1269 Rocket 4.2 20:55:28 10° NNW 21:00:32 48° WSW 21:05:36 10° S
METEOR-M 4.2 20:55:27 10° N 21:00:44 63° WNW 21:06:00 10° SSW
STARLINK-1181 4.2 20:57:50 10° SSW 21:00:46 39° SE 21:03:41 10° NE
STARLINK-1196 4.2 20:58:17 10° SSW 21:01:13 39° SE 21:04:08 10° NE
GPS 2-12 Rocket1 4.0 20:57:47 12° WSW 21:01:19 29° SSW 21:05:12 10° SE
STARLINK-1186 4.1 20:58:44 10° SSW 21:01:39 40° SE 21:04:34 10° NE
STARLINK-1185 4.1 20:59:11 10° SSW 21:02:07 41° SE 21:05:03 10° NE
STARLINK-1175 4.1 20:59:37 10° SSW 21:02:32 41° SE 21:05:28 10° NE
STARLINK-1147 4.0 21:00:04 10° SSW 21:03:00 42° SE 21:05:58 10° NE
STARLINK-1146 4.0 21:00:31 10° SSW 21:03:28 43° SE 21:06:26 10° NE
STARLINK-1152 4.0 21:00:56 10° SSW 21:03:55 44° SE 21:06:52 10° NE
FENGYUN 3A 3.8 20:58:41 10° N 21:03:55 55° WNW 21:09:08 10° SSW
STARLINK-1195 3.9 21:01:23 10° SSW 21:04:20 44° SE 21:07:18 10° NE
STARLINK-1137 3.9 21:01:50 10° SSW 21:04:48 45° SE 21:07:47 10° NE
STARLINK-1142 3.9 21:02:17 10° SSW 21:05:14 46° SE 21:08:13 10° NE
STARLINK-1127 3.8 21:02:44 10° SSW 21:05:43 47° SE 21:08:42 10° NE
STARLINK-1184 3.8 21:03:09 10° SSW 21:06:09 48° SE 21:09:09 10° NE
STARLINK-1193 3.8 21:03:36 10° SSW 21:06:35 48° SE 21:09:34 10° NE
STARLINK-1194 3.7 21:04:02 10° SSW 21:07:02 49° SE 21:10:03 10° NE
FALCON 9 DEB 3.7 21:04:00 10° WNW 21:07:11 36° SW 21:10:21 10° SSE
SL-16 R/B 2.9 21:03:37 10° NW 21:08:27 30° WSW 21:13:16 10° SSW
Aureole 3 Rocket 2.9 21:06:57 10° N 21:10:34 65° E 21:13:36 10° SSE
STARLINK-29 4.1 21:08:08 10° WNW 21:10:52 25° SW 21:13:36 10° S
Cosmos 1766 3.8 21:07:40 10° N 21:11:31 64° E 21:15:19 10° SSE
CZ-4B DEB 4.2 21:06:05 10° N 21:11:36 82° WNW 21:17:08 10° SSW
Meteor 1-15 Rocket 4.4 21:07:04 10° NNW 21:12:31 53° W 21:18:02 10° S
CZ-4B R/B 4.4 21:10:01 10° NNW 21:13:26 22° WNW 21:16:56 10° SW
Cosmos 1553 Rocket 4.2 21:07:51 10° N 21:14:12 84° E 21:20:36 10° S
Cosmos 1844 Rocket 3.2 21:09:34 10° S 21:15:07 68° ESE 21:20:44 10° NNE
ARIANE 5 R/B 4.1 21:11:12 10° SSW 21:15:44 25° SSE 21:33:36 10° ESE
Meteor 1-21 4.4 21:10:53 10° S 21:16:37 86° E 21:22:26 10° N
Centaur D-1A AC-31 4.1 12:45:41 10° SW 22:25:41 68° NNW 22:32:04 10° ENE
